Flag for Spain Weather past 2 weeks in Barcelona, Barcelona, Spain

Now
75 °F

Passing clouds.


Feels Like: 76 °F
Forecast: 69 / 82 °F
Wind: 8 mph from Southwest

Location: Barcelona Airport

Current Time: Sep 1, 2014 at 8:45:02 PM

Latest Report: Sep 1, 2014 at 8:00 PM


Visibility: N/A

Pressure: 29.92 "Hg

Humidity: 78%

Dew point: 68 °F

Location of BarcelonaLocation

Historic Weather in Barcelona — Graph

°F

Barcelona temperature yesterday

Maximum temperature yesterday: 82 °F (at 12:00 PM)
Minimum temperature yesterday: 70 °F (at 3:30 AM)
Average temperature yesterday: 76 °F

Past Weeks' High & Low Weather Summary

 TemperatureHumidityPressure
High82 °F (Aug 25, 3:00 PM)100% (Aug 23, 12:00 AM)30.12 "Hg (Aug 23, 12:00 AM)
Low64 °F (Aug 22, 10:04 PM)47% (Aug 23, 4:00 PM)29.83 "Hg (Aug 18, 10:00 PM)
Average75 °F72%30.00 "Hg
* Reported Aug 17 7:00 PM — Sep 1 7:30 PM, Barcelona, Weather by CustomWeather, © 2014

Note: Actual official high and low records may vary slightly from our data, if they occured in-between our weather recording intervals... More about our weather records

Advertising

Barcelona weather history for previous 24 hours

 ConditionsComfort  
Time TempWeatherWind HumidityBarometerVisibility
7:30 PM
Sep 1
75 °FPassing clouds.7 mph78%29.92 "HgN/A
7:00 PM77 °FPassing clouds.7 mph69%29.95 "HgN/A
6:30 PM77 °FScattered clouds.7 mph69%29.95 "HgN/A
6:00 PM77 °FScattered clouds.7 mph69%29.95 "HgN/A
5:30 PM77 °FScattered clouds.8 mph65%29.95 "HgN/A
5:00 PM77 °FScattered clouds.8 mph69%29.95 "HgN/A
4:30 PM77 °FScattered clouds.9 mph69%29.95 "HgN/A
4:00 PM77 °FScattered clouds.9 mph65%29.98 "HgN/A
3:30 PM77 °FPassing clouds.10 mph69%29.98 "HgN/A
3:00 PM79 °FScattered clouds.10 mph65%29.98 "HgN/A
2:30 PM77 °FScattered clouds.10 mph69%29.98 "HgN/A
2:00 PM79 °FScattered clouds.12 mph65%29.98 "HgN/A
1:30 PM79 °FScattered clouds.9 mph65%30.01 "HgN/A
1:00 PM79 °FScattered clouds.10 mph65%30.01 "HgN/A
12:30 PM79 °FScattered clouds.13 mph70%30.01 "HgN/A
12:00 PM79 °FScattered clouds.12 mph70%30.01 "HgN/A
11:30 AM79 °FScattered clouds.7 mph70%30.01 "HgN/A
11:00 AM77 °FScattered clouds.10 mph69%30.01 "HgN/A
10:30 AM79 °FScattered clouds.9 mph70%30.01 "HgN/A
10:00 AM77 °FPassing clouds.3 mph74%30.01 "HgN/A
9:30 AM75 °FPassing clouds.7 mph78%29.98 "HgN/A
9:00 AM73 °FPassing clouds.6 mph83%29.98 "HgN/A
8:30 AM73 °FPassing clouds.5 mph78%29.98 "HgN/A
8:00 AM73 °FPassing clouds.6 mph83%29.98 "HgN/A
7:30 AM72 °FPassing clouds.5 mph88%29.98 "HgN/A
7:00 AM72 °FPassing clouds.6 mph88%29.98 "HgN/A
6:30 AM72 °FPassing clouds.5 mph88%29.98 "HgN/A
6:00 AM72 °FPassing clouds.3 mph83%29.98 "HgN/A
5:30 AM73 °FPassing clouds.5 mph83%29.98 "HgN/A
5:00 AM73 °FPassing clouds.6 mph83%29.98 "HgN/A
4:30 AM73 °FPassing clouds.5 mph83%29.98 "HgN/A
4:00 AM73 °FPassing clouds.3 mph83%29.98 "HgN/A
3:30 AM75 °FPassing clouds.2 mph78%29.98 "HgN/A
3:00 AM75 °FPassing clouds.5 mph83%29.98 "HgN/A
2:30 AM75 °FPassing clouds.5 mph83%30.01 "HgN/A
2:00 AM75 °FPassing clouds.3 mph83%30.01 "HgN/A
1:30 AM75 °FPassing clouds.6 mph89%30.01 "HgN/A
1:00 AM75 °FPassing clouds.5 mph89%30.01 "HgN/A
12:30 AM77 °FPassing clouds.5 mph89%30.01 "HgN/A
12:00 AM77 °FPassing clouds.6 mph83%30.01 "HgN/A
11:30 PM
Aug 31
77 °FPassing clouds.3 mph83%30.01 "HgN/A
11:00 PM77 °FPassing clouds.3 mph83%29.98 "HgN/A
10:30 PM77 °FPassing clouds.3 mph79%30.01 "HgN/A
10:00 PM77 °FPassing clouds.3 mph79%30.01 "HgN/A
9:30 PM77 °FPassing clouds.3 mph79%30.01 "HgN/A
9:00 PM77 °FScattered clouds.3 mph79%29.98 "HgN/A
8:30 PM77 °FScattered clouds.7 mph79%29.98 "HgN/A
8:00 PM77 °FPartly sunny.7 mph79%29.98 "HgN/A
Weather by CustomWeather, © 2014

See weather overviewHow to use our weather pages